Time,TemperatureF,DewpointF,PressureIn,WindDirection,WindDirectionDegrees,WindSpeedMPH,WindSpeedGustMPH,Humidity,HourlyPrecipIn,Conditions,Clouds,dailyrainin,SoftwareType,DateUTC
2013-03-03 00:05:00,42.3,42.0,30.12,ENE,58,7.0,-999.0,100,-99.99,,,0.00,weatherlink.com 1.10,2013-03-02 22:05:00,
2013-03-03 00:20:00,42.3,42.0,30.11,NNE,16,5.0,-999.0,100,-99.99,,,0.00,weatherlink.com 1.10,2013-03-02 22:20:00,
2013-03-03 00:35:00,42.2,42.0,30.12,NNE,30,6.0,-999.0,100,-99.99,,,0.00,weatherlink.com 1.10,2013-03-02 22:35:00,
2013-03-03 00:50:00,42.2,42.0,30.11,NE,48,5.0,-999.0,100,-99.99,,,0.00,weatherlink.com 1.10,2013-03-02 22:50:00,
2013-03-03 01:05:00,42.2,42.0,30.11,NNE,27,5.0,-999.0,100,-99.99,,,0.00,weatherlink.com 1.10,2013-03-02 23:05:00,
2013-03-03 01:20:00,42.2,42.0,30.11,NE,51,8.0,-999.0,100,-99.99,,,0.00,weatherlink.com 1.10,2013-03-02 23:20:00,
2013-03-03 01:36:00,42.3,42.0,30.11,NE,49,11.0,-999.0,100,-99.99,,,0.00,weatherlink.com 1.10,2013-03-02 23:36:00,
2013-03-03 01:51:00,42.3,42.0,30.11,NE,37,7.0,-999.0,100,-99.99,,,0.00,weatherlink.com 1.10,2013-03-02 23:51:00,
2013-03-03 02:06:00,42.3,42.0,30.10,NNE,13,8.0,-999.0,100,-99.99,,,0.00,weatherlink.com 1.10,2013-03-03 00:06:00,
2013-03-03 02:21:00,42.2,42.0,30.10,NW,309,6.0,-999.0,100,-99.99,,,0.00,weatherlink.com 1.10,2013-03-03 00:21:00,
2013-03-03 02:36:00,42.1,42.0,30.10,North,4,5.0,-999.0,100,-99.99,,,0.00,weatherlink.com 1.10,2013-03-03 00:36:00,
2013-03-03 02:51:00,42.1,42.0,30.09,ENE,61,10.0,-999.0,100,-99.99,,,0.00,weatherlink.com 1.10,2013-03-03 00:51:00,
2013-03-03 03:06:00,41.9,42.0,30.09,NE,37,5.0,-999.0,100,-99.99,,,0.00,weatherlink.com 1.10,2013-03-03 01:06:00,
2013-03-03 03:21:00,41.8,42.0,30.08,ENE,58,5.0,-999.0,100,-99.99,,,0.00,weatherlink.com 1.10,2013-03-03 01:21:00,
2013-03-03 03:36:00,41.8,42.0,30.08,NE,35,11.0,-999.0,100,-99.99,,,0.00,weatherlink.com 1.10,2013-03-03 01:36:00,
2013-03-03 03:51:00,41.6,42.0,30.07,NE,35,9.0,-999.0,100,-99.99,,,0.00,weatherlink.com 1.10,2013-03-03 01:51:00,
2013-03-03 04:06:00,41.8,42.0,30.07,ENE,59,6.0,-999.0,100,-99.99,,,0.00,weatherlink.com 1.10,2013-03-03 02:06:00,
2013-03-03 04:21:00,41.8,42.0,30.07,North,11,8.0,-999.0,100,-99.99,,,0.00,weatherlink.com 1.10,2013-03-03 02:21:00,
2013-03-03 04:36:00,41.8,42.0,30.06,ENE,61,11.0,-999.0,100,-99.99,,,0.00,weatherlink.com 1.10,2013-03-03 02:36:00,
2013-03-03 04:51:00,41.8,42.0,30.06,NE,44,8.0,-999.0,100,-99.99,,,0.00,weatherlink.com 1.10,2013-03-03 02:51:00,
2013-03-03 05:06:00,41.9,42.0,30.06,NE,52,12.0,-999.0,100,-99.99,,,0.00,weatherlink.com 1.10,2013-03-03 03:06:00,
2013-03-03 05:21:00,41.9,42.0,30.06,ENE,72,11.0,-999.0,100,-99.99,,,0.00,weatherlink.com 1.10,2013-03-03 03:21:00,
2013-03-03 05:36:00,41.9,42.0,30.05,ENE,73,16.0,-999.0,100,-99.99,,,0.00,weatherlink.com 1.10,2013-03-03 03:36:00,
2013-03-03 05:51:00,41.9,42.0,30.06,NNW,343,5.0,-999.0,100,-99.99,,,0.00,weatherlink.com 1.10,2013-03-03 03:51:00,
2013-03-03 06:06:00,41.8,42.0,30.06,NE,40,17.0,-999.0,100,-99.99,,,0.00,weatherlink.com 1.10,2013-03-03 04:06:00,
2013-03-03 06:21:00,41.8,42.0,30.06,NE,42,5.0,-999.0,100,-99.99,,,0.00,weatherlink.com 1.10,2013-03-03 04:21:00,
2013-03-03 06:36:00,41.8,42.0,30.05,NE,35,11.0,-999.0,100,-99.99,,,0.00,weatherlink.com 1.10,2013-03-03 04:36:00,
2013-03-03 06:51:00,41.8,42.0,30.06,NE,41,11.0,-999.0,100,-99.99,,,0.00,weatherlink.com 1.10,2013-03-03 04:51:00,
2013-03-03 07:06:00,41.8,42.0,30.06,North,6,10.0,-999.0,100,-99.99,,,0.00,weatherlink.com 1.10,2013-03-03 05:06:00,
2013-03-03 07:21:00,41.8,42.0,30.06,NE,48,10.0,-999.0,100,-99.99,,,0.00,weatherlink.com 1.10,2013-03-03 05:21:00,
2013-03-03 07:36:00,41.8,42.0,30.07,NE,44,11.0,-999.0,100,-99.99,,,0.00,weatherlink.com 1.10,2013-03-03 05:36:00,
2013-03-03 07:51:00,41.8,42.0,30.07,NNE,24,5.0,-999.0,100,-99.99,,,0.00,weatherlink.com 1.10,2013-03-03 05:51:00,
2013-03-03 08:06:00,41.9,42.0,30.07,NNE,24,7.0,-999.0,100,-99.99,,,0.00,weatherlink.com 1.10,2013-03-03 06:06:00,
2013-03-03 08:21:00,42.1,42.0,30.07,ENE,65,8.0,-999.0,100,-99.99,,,0.00,weatherlink.com 1.10,2013-03-03 06:21:00,
2013-03-03 08:36:00,42.1,42.0,30.07,NE,34,7.0,-999.0,100,-99.99,,,0.00,weatherlink.com 1.10,2013-03-03 06:36:00,
2013-03-03 08:51:00,42.1,42.0,30.07,North,11,5.0,-999.0,100,-99.99,,,0.00,weatherlink.com 1.10,2013-03-03 06:51:00,
2013-03-03 09:06:00,42.2,42.0,30.07,North,11,6.0,-999.0,100,-99.99,,,0.00,weatherlink.com 1.10,2013-03-03 07:06:00,
2013-03-03 09:21:00,42.3,42.0,30.06,NE,49,13.0,-999.0,100,-99.99,,,0.00,weatherlink.com 1.10,2013-03-03 07:21:00,
2013-03-03 09:36:00,42.3,42.0,30.06,NE,54,12.0,-999.0,100,-99.99,,,0.00,weatherlink.com 1.10,2013-03-03 07:36:00,
2013-03-03 09:51:00,42.8,43.0,30.05,NE,35,17.0,-999.0,100,-99.99,,,0.00,weatherlink.com 1.10,2013-03-03 07:51:00,
2013-03-03 10:06:00,43.2,43.0,30.05,NE,51,14.0,-999.0,100,-99.99,,,0.00,weatherlink.com 1.10,2013-03-03 08:06:00,
2013-03-03 10:21:00,43.9,44.0,30.05,NE,34,16.0,-999.0,100,-99.99,,,0.00,weatherlink.com 1.10,2013-03-03 08:21:00,
2013-03-03 10:36:00,44.1,44.0,30.04,ENE,68,16.0,-999.0,100,-99.99,,,0.00,weatherlink.com 1.10,2013-03-03 08:36:00,
2013-03-03 10:51:00,44.2,44.0,30.04,ENE,68,24.0,-999.0,100,-99.99,,,0.00,weatherlink.com 1.10,2013-03-03 08:51:00,
2013-03-03 11:06:00,44.2,44.0,30.04,ENE,61,17.0,-999.0,100,-99.99,,,0.00,weatherlink.com 1.10,2013-03-03 09:06:00,
2013-03-03 11:21:00,44.8,45.0,30.03,NE,45,17.0,-999.0,100,-99.99,,,0.00,weatherlink.com 1.10,2013-03-03 09:21:00,
2013-03-03 11:36:00,44.6,45.0,30.03,ENE,69,14.0,-999.0,100,-99.99,,,0.00,weatherlink.com 1.10,2013-03-03 09:36:00,
2013-03-03 11:51:00,45.2,45.0,30.02,NE,45,8.0,-999.0,100,-99.99,,,0.00,weatherlink.com 1.10,2013-03-03 09:51:00,
2013-03-03 12:06:00,45.2,45.0,30.02,NNE,32,8.0,-999.0,100,-99.99,,,0.00,weatherlink.com 1.10,2013-03-03 10:06:00,
2013-03-03 12:21:00,45.5,46.0,30.01,NE,37,8.0,-999.0,100,-99.99,,,0.00,weatherlink.com 1.10,2013-03-03 10:21:00,
2013-03-03 12:36:00,45.5,46.0,30.00,NNE,25,10.0,-999.0,100,-99.99,,,0.00,weatherlink.com 1.10,2013-03-03 10:36:00,
2013-03-03 12:51:00,45.4,45.0,29.99,East,80,11.0,-999.0,100,-99.99,,,0.00,weatherlink.com 1.10,2013-03-03 10:51:00,
2013-03-03 13:07:00,45.2,45.0,29.99,ENE,65,17.0,-999.0,100,-99.99,,,0.00,weatherlink.com 1.10,2013-03-03 11:07:00,
2013-03-03 13:22:00,45.1,45.0,29.98,NE,54,10.0,-999.0,100,-99.99,,,0.00,weatherlink.com 1.10,2013-03-03 11:22:00,
2013-03-03 13:37:00,45.2,45.0,29.97,NE,41,14.0,-999.0,100,-99.99,,,0.00,weatherlink.com 1.10,2013-03-03 11:37:00,
2013-03-03 13:52:00,44.5,45.0,29.97,NE,44,6.0,-999.0,100,-99.99,,,0.00,weatherlink.com 1.10,2013-03-03 11:52:00,
2013-03-03 14:07:00,44.6,45.0,29.97,NNE,30,14.0,-999.0,100,-99.99,,,0.00,weatherlink.com 1.10,2013-03-03 12:07:00,
2013-03-03 14:22:00,44.5,45.0,29.96,North,8,19.0,-999.0,100,-99.99,,,0.00,weatherlink.com 1.10,2013-03-03 12:22:00,
2013-03-03 14:37:00,44.6,45.0,29.95,NNE,20,6.0,-999.0,100,-99.99,,,0.00,weatherlink.com 1.10,2013-03-03 12:37:00,
2013-03-03 14:52:00,44.6,45.0,29.95,NE,40,10.0,-999.0,100,-99.99,,,0.00,weatherlink.com 1.10,2013-03-03 12:52:00,
2013-03-03 15:07:00,44.5,45.0,29.95,ENE,58,14.0,-999.0,100,-99.99,,,0.00,weatherlink.com 1.10,2013-03-03 13:07:00,
2013-03-03 15:22:00,44.2,44.0,29.94,NE,41,13.0,-999.0,100,-99.99,,,0.00,weatherlink.com 1.10,2013-03-03 13:22:00,
2013-03-03 15:37:00,43.9,44.0,29.94,WNW,298,6.0,-999.0,100,-99.99,,,0.00,weatherlink.com 1.10,2013-03-03 13:37:00,
2013-03-03 15:53:00,43.6,44.0,29.94,North,0,6.0,-999.0,100,-99.99,,,0.00,weatherlink.com 1.10,2013-03-03 13:53:00,
2013-03-03 16:07:00,43.5,44.0,29.93,NE,48,8.0,-999.0,100,-99.99,,,0.00,weatherlink.com 1.10,2013-03-03 14:07:00,
2013-03-03 16:22:00,43.1,43.0,29.93,NE,45,12.0,-999.0,100,-99.99,,,0.00,weatherlink.com 1.10,2013-03-03 14:22:00,
2013-03-03 16:37:00,42.6,43.0,29.93,NE,40,17.0,-999.0,100,-99.99,,,0.00,weatherlink.com 1.10,2013-03-03 14:37:00,
2013-03-03 16:52:00,42.3,42.0,29.93,NE,54,12.0,-999.0,100,-99.99,,,0.00,weatherlink.com 1.10,2013-03-03 14:52:00,
2013-03-03 17:07:00,42.2,42.0,29.93,NE,41,18.0,-999.0,100,-99.99,,,0.00,weatherlink.com 1.10,2013-03-03 15:07:00,
2013-03-03 17:22:00,41.8,42.0,29.93,ENE,65,16.0,-999.0,100,-99.99,,,0.00,weatherlink.com 1.10,2013-03-03 15:22:00,
2013-03-03 17:37:00,41.6,42.0,29.92,NE,41,17.0,-999.0,100,-99.99,,,0.00,weatherlink.com 1.10,2013-03-03 15:37:00,
2013-03-03 17:52:00,41.3,41.0,29.92,NE,56,10.0,-999.0,100,-99.99,,,0.00,weatherlink.com 1.10,2013-03-03 15:52:00,
2013-03-03 18:07:00,41.1,41.0,29.92,NE,54,12.0,-999.0,100,-99.99,,,0.00,weatherlink.com 1.10,2013-03-03 16:07:00,
2013-03-03 18:22:00,40.9,41.0,29.92,NE,49,8.0,-999.0,100,-99.99,,,0.00,weatherlink.com 1.10,2013-03-03 16:22:00,
2013-03-03 18:37:00,40.6,41.0,29.93,NE,41,7.0,-999.0,100,-99.99,,,0.00,weatherlink.com 1.10,2013-03-03 16:37:00,
2013-03-03 18:52:00,40.6,41.0,29.93,NNE,17,6.0,-999.0,100,-99.99,,,0.00,weatherlink.com 1.10,2013-03-03 16:52:00,
2013-03-03 19:07:00,40.3,40.0,29.93,NE,56,10.0,-999.0,100,-99.99,,,0.00,weatherlink.com 1.10,2013-03-03 17:07:00,
2013-03-03 19:22:00,40.2,40.0,29.93,NNE,13,11.0,-999.0,100,-99.99,,,0.00,weatherlink.com 1.10,2013-03-03 17:22:00,
2013-03-03 19:37:00,40.2,40.0,29.93,NE,48,8.0,-999.0,100,-99.99,,,0.00,weatherlink.com 1.10,2013-03-03 17:37:00,
2013-03-03 19:52:00,40.2,40.0,29.93,NE,49,5.0,-999.0,100,-99.99,,,0.00,weatherlink.com 1.10,2013-03-03 17:52:00,
2013-03-03 20:07:00,39.9,40.0,29.93,NNE,32,6.0,-999.0,100,-99.99,,,0.00,weatherlink.com 1.10,2013-03-03 18:07:00,
2013-03-03 20:22:00,39.8,40.0,29.93,NE,52,5.0,-999.0,100,-99.99,,,0.00,weatherlink.com 1.10,2013-03-03 18:22:00,
2013-03-03 20:37:00,39.6,40.0,29.93,NE,45,10.0,-999.0,100,-99.99,,,0.00,weatherlink.com 1.10,2013-03-03 18:37:00,
2013-03-03 20:52:00,39.5,40.0,29.93,NNE,25,9.0,-999.0,100,-99.99,,,0.00,weatherlink.com 1.10,2013-03-03 18:52:00,
2013-03-03 21:07:00,39.3,39.0,29.93,NNE,17,5.0,-999.0,100,-99.99,,,0.00,weatherlink.com 1.10,2013-03-03 19:07:00,
2013-03-03 21:22:00,39.3,39.0,29.93,ENE,58,6.0,-999.0,100,-99.99,,,0.00,weatherlink.com 1.10,2013-03-03 19:22:00,
2013-03-03 21:37:00,39.3,39.0,29.93,NNE,25,5.0,-999.0,100,-99.99,,,0.00,weatherlink.com 1.10,2013-03-03 19:37:00,
2013-03-03 21:52:00,39.2,39.0,29.94,NE,48,6.0,-999.0,100,-99.99,,,0.00,weatherlink.com 1.10,2013-03-03 19:52:00,
2013-03-03 22:07:00,39.1,39.0,29.94,NNE,31,7.0,-999.0,100,-99.99,,,0.00,weatherlink.com 1.10,2013-03-03 20:07:00,
2013-03-03 22:22:00,39.1,39.0,29.94,NE,37,7.0,-999.0,100,-99.99,,,0.00,weatherlink.com 1.10,2013-03-03 20:22:00,
2013-03-03 22:37:00,39.1,39.0,29.94,NNE,30,5.0,-999.0,100,-99.99,,,0.00,weatherlink.com 1.10,2013-03-03 20:37:00,
2013-03-03 22:52:00,39.1,39.0,29.94,NNE,31,7.0,-999.0,100,-99.99,,,0.00,weatherlink.com 1.10,2013-03-03 20:52:00,
2013-03-03 23:07:00,38.9,39.0,29.94,NE,37,4.0,-999.0,100,-99.99,,,0.00,weatherlink.com 1.10,2013-03-03 21:07:00,
2013-03-03 23:22:00,38.8,39.0,29.94,NE,34,5.0,-999.0,100,-99.99,,,0.00,weatherlink.com 1.10,2013-03-03 21:22:00,
2013-03-03 23:37:00,38.6,39.0,29.95,NNE,28,1.0,-999.0,100,-99.99,,,0.00,weatherlink.com 1.10,2013-03-03 21:37:00,
2013-03-03 23:52:00,38.3,38.0,29.95,NE,48,6.0,-999.0,100,-99.99,,,0.00,weatherlink.com 1.10,2013-03-03 21:52:00,